Back to catalog

STARLINK-31190

AliveCommunicationsVLEO
NORAD 58897·PAYLOAD·🇺🇸 United States

Launched Jan 29, 2024 from Vandenberg Space Force Base

Loading…

Next Passes (next 24 hours)

TLE

FreshSource: CelesTrak SupGP

Epoch: Sep 14, 2026, 22:35 UTC

1 58897C 24020X   26257.94145833 -.00046993  00000+0 -15110-2 0  2573
2 58897  53.1585 162.0603 0001341  81.9904 320.3733 15.31728926    10

Track STARLINK-31190 in real time with AllMySat

Download on the App Store